When you browse on this site, cookies collect data to enhance your experience and personalize the content and advertising you see.
Visit our Privacy Policy to learn more. By continuing to use the site, you agree to this use of cookies and data.
  • In Romania
  • List of Countries
  • For 7 days
  • Water Temperature
  • Satellite Maps
  • Weather Map
  • Weather Widgets
  • user-avatar
    Login

    Hourly Weather Levokumka

    Today, 25 April, Thursday

    Time Temperature Precipitation Wind Pressure Humidity
    00:00 +10°C° 0.1 mm 4 mps 744 mmHg 67%
    01:00 +10°C° 0.2 mm 4 mps 744 mmHg 67%
    02:00 +10°C° 0.2 mm 4 mps 744 mmHg 67%
    03:00 +10°C° 0 mm 4 mps 744 mmHg 65%
    04:00 +9°C° 0 mm 3 mps 744 mmHg 66%
    05:00 +9°C° 0 mm 3 mps 744 mmHg 67%
    06:00 +9°C° 0 mm 3 mps 744 mmHg 68%
    07:00 +11°C° 0 mm 4 mps 744 mmHg 62%
    08:00 +14°C° 0 mm 4 mps 744 mmHg 57%
    09:00 +17°C° 0 mm 4 mps 743 mmHg 51%
    10:00 +18°C° 0 mm 3 mps 743 mmHg 48%
    11:00 +19°C° 0 mm 3 mps 743 mmHg 44%
    12:00 +19°C° 0 mm 3 mps 743 mmHg 41%
    13:00 +20°C° 0 mm 2 mps 743 mmHg 41%
    14:00 +20°C° 0 mm 2 mps 743 mmHg 41%
    15:00 +20°C° 0 mm 2 mps 742 mmHg 40%
    16:00 +19°C° 0 mm 2 mps 742 mmHg 45%
    17:00 +20°C° 0 mm 1 mps 742 mmHg 49%
    18:00 +19°C° 0 mm 1 mps 743 mmHg 54%
    19:00 +18°C° 0 mm 1 mps 743 mmHg 56%
    20:00 +15°C° 0 mm 1 mps 743 mmHg 58%
    21:00 +14°C° 0 mm 1 mps 743 mmHg 60%
    22:00 +14°C° 0 mm 1 mps 743 mmHg 62%
    23:00 +13°C° 0 mm 1 mps 743 mmHg 63%

    Tomorrow, 26 April, Friday

    Time Temperature Precipitation Wind Pressure Humidity
    00:00 +13°C° 0 mm 1 mps 742 mmHg 65%
    01:00 +12°C° 0 mm 1 mps 742 mmHg 65%
    02:00 +12°C° 0 mm 1 mps 742 mmHg 65%
    03:00 +11°C° 0 mm 1 mps 742 mmHg 66%
    04:00 +11°C° 0 mm 1 mps 742 mmHg 67%
    05:00 +11°C° 0 mm 1 mps 742 mmHg 68%
    06:00 +11°C° 0 mm 1 mps 742 mmHg 68%
    07:00 +14°C° 0 mm 1 mps 742 mmHg 63%
    08:00 +16°C° 0 mm 1 mps 741 mmHg 57%
    09:00 +19°C° 0 mm 1 mps 741 mmHg 52%
    10:00 +20°C° 0 mm 1 mps 741 mmHg 49%
    11:00 +20°C° 0 mm 2 mps 740 mmHg 46%
    12:00 +21°C° 0 mm 3 mps 740 mmHg 43%
    13:00 +21°C° 0 mm 3 mps 740 mmHg 42%
    14:00 +22°C° 0 mm 3 mps 740 mmHg 41%
    15:00 +22°C° 0 mm 4 mps 739 mmHg 41%
    16:00 +21°C° 0 mm 3 mps 739 mmHg 45%
    17:00 +21°C° 0 mm 3 mps 739 mmHg 50%
    18:00 +20°C° 0 mm 3 mps 739 mmHg 55%
    19:00 +18°C° 0 mm 2 mps 739 mmHg 58%
    20:00 +16°C° 0 mm 2 mps 739 mmHg 62%
    21:00 +15°C° 0 mm 2 mps 739 mmHg 65%
    22:00 +14°C° 0 mm 2 mps 739 mmHg 66%
    23:00 +14°C° 0 mm 1 mps 739 mmHg 67%

    Day after tomorrow, 27 April, Saturday

    Time Temperature Precipitation Wind Pressure Humidity
    00:00 +13°C° 0 mm 1 mps 739 mmHg 68%
    01:00 +13°C° 0 mm 1 mps 739 mmHg 69%
    02:00 +12°C° 0 mm 1 mps 739 mmHg 70%
    03:00 +12°C° 0 mm 1 mps 739 mmHg 71%
    04:00 +12°C° 0 mm 1 mps 739 mmHg 71%
    05:00 +12°C° 0 mm 1 mps 739 mmHg 71%
    06:00 +12°C° 0 mm 1 mps 739 mmHg 71%
    07:00 +15°C° 0 mm 2 mps 738 mmHg 63%
    08:00 +17°C° 0 mm 3 mps 738 mmHg 55%
    09:00 +19°C° 0 mm 3 mps 738 mmHg 47%
    10:00 +20°C° 0 mm 4 mps 738 mmHg 45%
    11:00 +21°C° 0 mm 4 mps 738 mmHg 42%
    12:00 +22°C° 0 mm 4 mps 737 mmHg 40%
    13:00 +22°C° 0 mm 4 mps 737 mmHg 40%
    14:00 +22°C° 0 mm 4 mps 737 mmHg 40%
    15:00 +23°C° 0 mm 4 mps 736 mmHg 40%
    16:00 +22°C° 0 mm 4 mps 736 mmHg 45%
    17:00 +21°C° 0 mm 3 mps 736 mmHg 50%
    18:00 +20°C° 0 mm 3 mps 736 mmHg 55%
    19:00 +19°C° 0 mm 2 mps 736 mmHg 58%
    20:00 +17°C° 0 mm 2 mps 736 mmHg 62%
    21:00 +16°C° 0 mm 1 mps 737 mmHg 65%
    22:00 +15°C° 0 mm 1 mps 736 mmHg 66%
    23:00 +14°C° 0 mm 2 mps 736 mmHg 67%

    28 April, Sunday

    Time Temperature Precipitation Wind Pressure Humidity
    00:00 +14°C° 0 mm 2 mps 736 mmHg 68%
    01:00 +13°C° 0 mm 1 mps 735 mmHg 69%
    02:00 +13°C° 0 mm 1 mps 735 mmHg 69%
    03:00 +11°C° 0 mm 0 mps 735 mmHg 70%
    04:00 +11°C° 0 mm 0 mps 735 mmHg 70%
    05:00 +12°C° 0 mm 1 mps 735 mmHg 70%
    06:00 +13°C° 0 mm 1 mps 735 mmHg 71%
    07:00 +15°C° 0 mm 1 mps 735 mmHg 65%
    08:00 +18°C° 0 mm 1 mps 735 mmHg 60%
    09:00 +19°C° 0 mm 2 mps 735 mmHg 54%
    10:00 +20°C° 0 mm 2 mps 735 mmHg 51%
    11:00 +21°C° 0 mm 2 mps 734 mmHg 47%
    12:00 +24°C° 0 mm 2 mps 734 mmHg 44%
    13:00 +24°C° 0.1 mm 2 mps 734 mmHg 42%
    14:00 +24°C° 0.1 mm 1 mps 734 mmHg 41%
    15:00 +25°C° 0.1 mm 1 mps 733 mmHg 40%
    16:00 +24°C° 0.2 mm 1 mps 733 mmHg 44%
    17:00 +23°C° 0.2 mm 1 mps 733 mmHg 49%
    18:00 +23°C° 0.2 mm 1 mps 733 mmHg 54%
    19:00 +21°C° 0.2 mm 1 mps 734 mmHg 57%
    20:00 +20°C° 0.2 mm 1 mps 734 mmHg 59%
    21:00 +19°C° 0.2 mm 1 mps 734 mmHg 61%
    22:00 +18°C° 0.2 mm 1 mps 734 mmHg 65%
    23:00 +16°C° 0.2 mm 1 mps 734 mmHg 69%

    29 April, Monday

    Time Temperature Precipitation Wind Pressure Humidity
    00:00 +15°C° 0.2 mm 1 mps 734 mmHg 72%
    01:00 +14°C° 0 mm 2 mps 734 mmHg 73%
    02:00 +14°C° 0 mm 2 mps 734 mmHg 73%
    03:00 +14°C° 0 mm 2 mps 734 mmHg 74%
    04:00 +14°C° 0 mm 2 mps 734 mmHg 74%
    05:00 +14°C° 0 mm 2 mps 734 mmHg 73%
    06:00 +14°C° 0 mm 2 mps 734 mmHg 73%
    07:00 +16°C° 0 mm 1 mps 734 mmHg 66%
    08:00 +19°C° 0 mm 1 mps 734 mmHg 60%
    09:00 +22°C° 0 mm 1 mps 734 mmHg 53%
    10:00 +23°C° 0 mm 1 mps 734 mmHg 48%
    11:00 +24°C° 0 mm 1 mps 734 mmHg 44%
    12:00 +25°C° 0 mm 1 mps 734 mmHg 40%
    13:00 +25°C° 0 mm 1 mps 734 mmHg 40%
    14:00 +25°C° 0 mm 1 mps 733 mmHg 41%
    15:00 +25°C° 0 mm 2 mps 733 mmHg 41%
    16:00 +24°C° 0.1 mm 1 mps 733 mmHg 46%
    17:00 +23°C° 0.1 mm 1 mps 733 mmHg 51%
    18:00 +22°C° 0.1 mm 1 mps 733 mmHg 57%
    19:00 +21°C° 0.3 mm 1 mps 734 mmHg 61%
    20:00 +19°C° 0.3 mm 1 mps 734 mmHg 66%
    21:00 +17°C° 0.3 mm 2 mps 734 mmHg 71%
    22:00 +16°C° 0.7 mm 2 mps 734 mmHg 74%
    23:00 +16°C° 0.7 mm 1 mps 734 mmHg 78%

    30 April, Tuesday

    Time Temperature Precipitation Wind Pressure Humidity
    00:00 +15°C° 0.7 mm 1 mps 734 mmHg 81%
    01:00 +15°C° 0 mm 1 mps 734 mmHg 81%
    02:00 +14°C° 0 mm 1 mps 734 mmHg 81%
    03:00 +14°C° 0 mm 1 mps 734 mmHg 80%
    04:00 +14°C° 0 mm 1 mps 734 mmHg 80%
    05:00 +14°C° 0 mm 1 mps 735 mmHg 80%
    06:00 +14°C° 0 mm 1 mps 735 mmHg 79%
    07:00 +16°C° 0 mm 1 mps 735 mmHg 74%
    08:00 +18°C° 0 mm 2 mps 735 mmHg 69%
    09:00 +19°C° 0 mm 2 mps 735 mmHg 63%
    10:00 +20°C° 0 mm 2 mps 735 mmHg 61%
    11:00 +21°C° 0 mm 3 mps 735 mmHg 58%
    12:00 +22°C° 0 mm 3 mps 734 mmHg 56%
    13:00 +22°C° 0.1 mm 4 mps 734 mmHg 57%
    14:00 +22°C° 0.1 mm 4 mps 734 mmHg 57%
    15:00 +22°C° 0.1 mm 5 mps 734 mmHg 58%
    16:00 +22°C° 0.1 mm 5 mps 734 mmHg 61%
    17:00 +21°C° 0.1 mm 4 mps 734 mmHg 64%
    18:00 +20°C° 0.1 mm 4 mps 734 mmHg 67%
    19:00 +19°C° 0 mm 5 mps 734 mmHg 71%
    20:00 +16°C° 0 mm 5 mps 734 mmHg 74%
    21:00 +14°C° 0 mm 5 mps 735 mmHg 77%
    22:00 +13°C° 0 mm 5 mps 734 mmHg 79%
    23:00 +12°C° 0 mm 4 mps 734 mmHg 81%
    Show more